Simultaneous Nadir Overpasses (SNOs) Predictions

Prediction of SNOs between GOES-17 and METOP-C Satellite Orbit:

Table of predicted SNOs for the next 14.0 days since TLE Epoch: 8/8/2025
Index Date Time (GOES-17) GOES-17 Lat,Lon METOP-C Lat,Lon Distance(km) Time Diff (sec)
1 08/09/2025 15:14:39 0.00, -89.50 -0.73, -86.29 366.11 80
2 08/11/2025 03:36:20 -0.02, -89.47 -0.36, -90.87 160.27 80
3 08/12/2025 03:13:02 -0.00, -89.48 0.82, -85.90 408.75 80
4 08/13/2025 15:34:34 0.02, -89.51 0.23, -90.45 107.10 80
5 08/14/2025 15:11:16 0.01, -89.51 -0.89, -85.46 461.76 80
6 08/16/2025 03:32:56 -0.03, -89.49 -0.18, -90.05 64.42 80
7 08/18/2025 15:31:11 0.04, -89.53 0.05, -89.63 11.08 80
8 08/21/2025 03:26:53 -0.04, -89.51 0.02, -89.23 32.21 80
9 08/22/2025 15:48:25 0.06, -89.56 1.03, -93.78 482.21 80
